This demonstration page uses our WeatherBlox Daily Observations layout. Learn more.

Left ArrowRight Arrow

Hourly Observations for September 26, 2022

Temp ( °F °C ) Dew Point ( °F °C ) Humidity (%) Winds ( mph kmh ) Pressure ( in mb ) Visibility ( mi km ) Precip ( " mm )
12:53 am 00:53 Clear 48 8.9 32 0 54 54 WSW 10 17 30.11 1020 10 16 0.00 0.00
1:53 am 01:53 Clear 47 8.3 32 0 56 56 SW 8 13 30.12 1020 10 16 0.00 0.00
2:53 am 02:53 Clear 47 8.3 33 0.6 58 58 W 5 7 30.13 1020 10 16 0.00 0.00
3:53 am 03:53 Clear 47 8.3 33 0.6 58 58 W 5 7 30.14 1021 10 16 0.00 0.00
4:53 am 04:53 Clear 43 6.1 32 0 65 65 SW 5 7 30.15 1021 10 16 0.00 0.00
5:53 am 05:53 Clear 41 5 32 0 70 70 WSW 6 9 30.17 1022 10 16 0.00 0.00
6:53 am 06:53 Clear 39 3.9 30 -1.1 70 70 W 6 9 30.19 1022 10 16 0.00 0.00
7:53 am 07:53 Sunny 42 5.6 32 0 67 67 Calm 30.22 1023 10 16 0.00 0.00
8:53 am 08:53 Sunny 51 10.6 35 1.7 54 54 WSW 5 7 30.22 1024 10 16 0.00 0.00
9:53 am 09:53 Sunny 60 15.6 36 2.2 40 40 WNW 3 6 30.22 1024 10 16 0.00 0.00
10:53 am 10:53 Sunny 66 18.9 36 2.2 33 33 Calm 30.22 1023 10 16 0.00 0.00
11:53 am 11:53 Sunny 74 23.3 31 -0.6 20 20 E 7 11 30.19 1023 10 16 0.00 0.00
12:53 pm 12:53 Sunny 78 25.6 36 2.2 22 22 ENE 8 13 30.18 1022 10 16 0.00 0.00
1:53 pm 13:53 Sunny 80 26.7 37 2.8 21 21 ENE 14 22 30.16 1021 10 16 0.00 0.00
2:53 pm 14:53 Sunny 81 27.2 39 3.9 22 22 ENE 9 15 30.14 1021 10 16 0.00 0.00
3:53 pm 15:53 Sunny 83 28.3 40 4.4 22 22 ENE 10 17 30.12 1020 10 16 0.00 0.00
4:53 pm 16:53 Sunny 82 27.8 39 3.9 22 22 ENE 13 20 30.11 1020 10 16 0.00 0.00
5:53 pm 17:53 Sunny 80 26.7 39 3.9 23 23 ENE 13 20 30.11 1020 10 16 0.00 0.00
6:53 pm 18:53 Sunny 75 23.9 40 4.4 28 28 ENE 10 17 30.11 1020 10 16 0.00 0.00
7:53 pm 19:53 Clear 66 18.9 39 3.9 37 37 E 9 15 30.12 1020 10 16 0.00 0.00

Powered by AerisWeather